Location: Allaines
(49.9632°N, 2.9458°E)
Time: 17:02:48
(UTC+00:00)

Tiangong - Pass Details

Date: 26 June 2021
Orbit: 373 x 386 km, 41.5° (Epoch: 02 August)

Event Time Altitude Azimuth Distance (km) Brightness Sun altitude
Exits shadow 01:33:24 13° 150° (SSE) 1,214 3.2 -13.2°
Drops below altitude 10° 01:34:21 10° 133° (SE) 1,387 3.7 -13.2°
Sets 01:37:06 0° 107° (ESE) 2,245 5.1 -13.0°
